Lid_Strength_Index
-1 -0 0 3 11 11 13 11 7 7 6 5 5 6 7 6 9 13 2 1 1 0 -0 -0 -1 -1 -2 -2 -2 -1 -1 -1 -1 -2 -2 -2 -2 -2 -2 -1 -2 -2 -2 -2 -2 -2 -2 -2 -2
0 0 2 6 13 15 13 8 9 6 5 5 5 5 6 8 5 4 4 1 1 0 -0 -0 -1 -1 -1 -2 -2 -1 -1 -1 -1 -2 -2 -1 -2 -2 -2 -2 -2 -2 -2 -2 -2 -2 -2 -2 -2
-0 0 6 10 12 14 13 8 7 5 5 5 6 5 6 7 4 3 1 2 0 0 0 -0 -1 -1 -1 -1 -2 -1 -1 -1 -1 -2 -2 -2 -1 -1 -2 -2 -2 -2 -2 -2 -2 -2 -2 -2 -2
2 3 5 11 13 10 9 7 6 6 5 4 5 7 5 3 3 2 1 2 1 0 -0 -1 -1 -1 -1 -1 -1 -1 -1 -1 -2 -2 -2 -2 -1 -1 -2 -2 -2 -2 -2 -2 -2 -2 -2 -2 -2
2 5 10 11 10 8 7 6 6 7 6 5 5 7 7 3 2 1 1 2 1 1 -0 -0 -1 -1 -1 -1 -1 -1 -1 -1 -1 -2 -2 -2 -1 -1 -2 -2 -2 -2 -2 -2 -2 -2 -2 -2 -2
6 6 11 12 10 7 6 5 6 7 7 5 6 6 7 3 2 2 1 1 1 1 0 -0 -1 -1 -1 -1 -1 -1 -1 -1 -2 -2 -2 -2 -1 -2 -2 -1 -2 -2 -2 -2 -2 -2 -2 -2 -2
7 9 11 10 10 8 6 5 6 7 8 7 5 8 6 4 2 1 1 1 0 0 0 0 -0 -1 -1 -1 -1 -1 -1 -2 -2 -2 -2 -1 -1 -1 -2 -2 -2 -2 -2 -2 -2 -2 -2 -2 -2
5 8 10 10 10 10 6 5 4 6 7 4 3 9 8 4 2 1 1 1 1 1 0 0 -0 -0 -0 -0 -1 -2 -2 -2 -2 -2 -2 -2 -1 -2 -1 -2 -2 -2 -2 -2 -2 -2 -2 -2 -2
1 10 12 10 9 8 5 6 4 4 5 4 4 4 4 3 2 2 2 2 2 1 1 0 0 0 -0 -0 -1 -1 -2 -2 -2 -2 -2 -1 -0 -0 -1 -2 -2 -2 -2 -2 -2 -2 -1 -1 -1
6 10 9 6 6 7 6 6 5 6 6 6 5 4 3 3 3 4 4 4 3 2 1 1 0 0 -0 -0 -0 -0 -0 0 0 -0 -0 -0 0 -0 -1 -1 -2 -2 -2 -2 -1 -1 -2 -2 1
5 9 6 6 5 6 6 6 6 7 8 7 6 6 4 4 4 4 3 3 3 2 1 1 1 0 0 0 -0 0 0 0 -0 0 -0 -0 0 0 -0 -0 0 0 -1 1 -0 0 1 3 2
7 6 5 5 5 5 6 5 6 5 6 4 5 7 7 4 4 4 4 3 3 2 2 1 0 0 0 0 0 1 1 0 0 0 0 0 1 1 1 1 0 1 2 3 3 3 3 3 2
7 6 5 5 5 5 5 6 6 6 4 4 3 4 7 7 5 3 3 2 2 2 2 1 0 0 0 1 2 1 0 0 -0 -0 0 1 2 2 1 2 1 3 5 6 5 4 4 4 4
6 6 6 5 5 5 6 6 6 5 4 4 4 5 5 5 5 4 3 3 3 2 2 1 1 1 0 2 2 1 0 0 0 -0 1 1 2 2 3 3 3 6 7 6 5 6 6 6 6
5 8 7 6 6 6 5 8 8 5 4 5 5 5 5 4 4 4 3 3 2 2 1 1 1 0 1 2 1 0 0 -0 -0 0 1 2 2 3 3 4 5 7 7 7 7 7 7 7 7
8 8 11 7 6 6 6 11 7 5 5 6 5 5 4 4 4 4 3 3 2 2 2 1 0 0 1 2 0 0 0 0 -0 -0 1 3 2 3 4 5 6 7 7 7 7 7 7 8 8
9 12 11 9 6 7 8 10 7 5 5 6 6 5 5 4 4 4 3 3 2 2 2 1 1 1 1 1 0 0 0 0 0 1 3 3 3 4 5 6 7 7 7 7 7 8 7 8 8
12 11 10 10 8 8 9 9 7 6 6 6 6 6 5 5 4 3 3 3 2 2 1 1 1 1 1 0 0 1 1 1 0 2 3 3 4 5 6 7 7 7 7 7 7 8 8 8 8
8 9 10 9 7 9 9 9 8 7 7 7 7 6 5 5 3 3 3 4 2 2 2 2 2 1 1 1 2 2 2 2 1 3 4 4 5 6 7 6 7 7 7 7 7 8 9 8 8
8 10 11 9 7 9 9 10 8 7 7 7 7 6 6 5 4 3 4 4 3 3 2 3 2 2 3 1 1 1 1 1 1 2 4 5 6 7 6 6 7 7 7 7 7 7 8 8 8
9 10 11 12 9 8 10 11 9 7 7 6 6 6 6 5 5 4 3 4 3 3 3 4 3 1 2 0 1 3 3 3 2 3 5 6 6 6 6 7 7 7 7 7 7 6 7 8 8
11 8 9 10 12 15 10 17 12 10 9 8 7 7 6 6 5 4 4 4 4 3 2 3 2 1 1 1 2 2 2 3 3 5 5 5 6 7 7 8 8 8 7 7 7 6 6 7 8
10 7 9 10 12 12 12 15 13 10 12 10 8 7 6 5 5 5 4 3 3 2 2 2 2 2 1 1 2 3 3 4 5 5 6 6 6 6 6 7 8 8 8 8 8 8 8 7 7
7 9 9 10 12 17 13 15 15 13 12 10 8 7 6 6 5 4 4 3 3 2 2 3 2 2 1 1 3 3 5 5 6 6 6 7 6 6 6 6 7 7 7 7 7 8 8 8 8
8 11 19 19 19 19 12 15 15 11 9 9 9 8 6 6 5 5 5 4 4 3 3 2 2 2 1 2 2 3 4 4 5 6 5 6 7 7 6 6 6 7 7 7 7 8 8 8 7
10 11 18 22 22 19 12 18 14 8 7 7 7 7 6 6 6 6 4 4 4 3 3 2 3 2 2 3 3 3 4 5 5 5 6 5 5 6 6 6 6 6 6 7 7 8 7 7 7
10 13 10 16 15 19 16 13 10 8 8 8 8 7 7 7 7 7 7 5 3 3 3 3 4 3 4 4 4 4 4 4 5 4 4 4 4 5 5 6 6 6 7 7 8 8 7 7 7
10 9 14 15 21 21 15 14 15 11 10 9 9 9 7 7 7 7 7 6 4 4 3 3 3 4 3 3 4 4 3 3 3 3 4 4 4 4 5 6 7 7 7 7 7 8 7 7 8
11 12 11 12 14 19 19 16 10 10 9 9 8 9 8 8 8 7 7 7 7 6 6 5 6 6 6 6 6 6 6 5 5 6 5 6 5 6 7 6 6 7 7 7 8 8 8 8 8
11 12 12 15 16 14 15 15 8 8 8 8 8 9 8 7 7 7 8 8 8 8 7 7 7 8 8 8 7 7 8 8 8 8 8 6 6 6 6 6 6 6 6 6 6 7 7 8 8